Weather History for KTQE - August, 2013

Change the Weather History Date:

Thursday, August 15, 2013

  Actual Average Record
Temperature  
Mean Temperature 63 °F -  
Max Temperature 66 °F 85 °F 101 °F (1988)
Min Temperature 60 °F 62 °F 46 °F (1992)
Degree Days  
Heating Degree Days 2    
Growing Degree Days 13 (Base 50)    
Moisture  
Dew Point 59 °F    
Average Humidity 89    
Maximum Humidity 94    
Minimum Humidity 78    
Precipitation  
Precipitation 2.12 in - - ()
Sea Level Pressure  
Sea Level Pressure 30.08 in    
Wind  
Wind Speed 8 mph (ESE)    
Max Wind Speed 18 mph    
Max Gust Speed 23 mph    
Visibility 4 miles    
Events Rain    
Averages and records for this station are not official NWS values.
T = Trace of Precipitation, MM = Missing Value Source: NWS Daily Summary

Daily Weather History Graph

Daily Weather History Graph

Search for Another Location

Airport or City:

Trip Planner

Search our weather history database for the weather conditions in past years. The results will help you decide how hot, cold, wet, or windy it might be!

Date:

Astronomy

Aug. 15, 2013 Rise Set
Actual Time 6:33 AM CDT 8:24 PM CDT
Civil Twilight 6:03 AM CDT 8:54 PM CDT
Nautical Twilight 5:26 AM CDT 9:30 PM CDT
Astronomical Twilight 4:47 AM CDT 10:09 PM CDT
Moon 3:44 PM CDT (8/15) 12:42 AM CDT (8/15)
Length of Visible Light 14h 50m
Length of Day
13h 50m
Waxing Gibbous, 64% of the Moon is Illuminated
Aug 15
Waxing Gibbous
Aug 20
Full
Aug 28
Last Quarter
Sep 5
New
Sep 12
First Quarter

Hourly Weather History & Observations

Time (CDT) Temp. Dew Point Humidity Pressure Visibility Wind Dir Wind Speed Gust Speed Precip Events Conditions
12:07 AM 62.6 °F 60.8 °F 94% 30.12 in 2.0 mi East 4.6 mph - 0.05 in Rain Heavy Rain
12:21 AM 62.6 °F 60.8 °F 94% 30.12 in 1.5 mi ENE 4.6 mph - 0.15 in Rain Heavy Rain
12:54 AM 62.1 °F 60.1 °F 93% 30.09 in 1.2 mi East 6.9 mph - 0.41 in Rain Heavy Rain
1:38 AM 60.8 °F 59.0 °F 94% 30.12 in 0.8 mi SE 9.2 mph - 0.48 in Rain Heavy Rain
1:47 AM 60.8 °F 59.0 °F 94% 30.11 in 0.8 mi SE 12.7 mph - 0.60 in Rain Heavy Rain
1:54 AM 61.0 °F 59.0 °F 93% 30.09 in 1.0 mi ESE 10.4 mph - 0.67 in Rain Heavy Rain
2:09 AM 60.8 °F 59.0 °F 94% 30.11 in 3.0 mi East 8.1 mph - 0.04 in Rain Light Rain
2:16 AM 60.8 °F 59.0 °F 94% 30.10 in 2.0 mi ESE 9.2 mph - 0.06 in Rain Rain
2:35 AM 60.8 °F 59.0 °F 94% 30.12 in 4.0 mi East 3.5 mph - 0.09 in Rain Light Rain
2:44 AM 60.8 °F 57.2 °F 88% 30.11 in 2.0 mi ESE 6.9 mph - 0.13 in Rain Heavy Rain
2:48 AM 60.8 °F 57.2 °F 88% 30.10 in 1.2 mi ESE 8.1 mph - 0.18 in Rain Heavy Rain
2:54 AM 60.1 °F 57.9 °F 93% 30.08 in 1.2 mi ESE 6.9 mph - 0.20 in Rain Heavy Rain
3:08 AM 60.8 °F 57.2 °F 88% 30.10 in 1.2 mi SE 4.6 mph - 0.12 in Rain Heavy Rain
3:18 AM 60.8 °F 59.0 °F 94% 30.11 in 1.8 mi Calm Calm - 0.15 in Rain Rain
3:25 AM 60.8 °F 57.2 °F 88% 30.10 in 2.0 mi SE 6.9 mph - 0.18 in Rain Rain
3:32 AM 60.8 °F 57.2 °F 88% 30.09 in 1.8 mi SE 10.4 mph - 0.21 in Rain Heavy Rain
3:37 AM 60.8 °F 57.2 °F 88% 30.09 in 1.8 mi SE 10.4 mph - 0.22 in Rain Rain
3:45 AM 60.8 °F 57.2 °F 88% 30.09 in 2.0 mi SE 10.4 mph - 0.24 in Rain Rain
3:54 AM 60.1 °F 57.9 °F 93% 30.06 in 2.5 mi SE 9.2 mph - 0.26 in Rain Light Rain
4:03 AM 60.8 °F 59.0 °F 94% 30.08 in 4.0 mi Variable 4.6 mph - 0.00 in Rain Light Rain
4:30 AM 60.8 °F 59.0 °F 94% 30.09 in 3.0 mi ESE 5.8 mph - 0.03 in Rain Rain
4:34 AM 60.8 °F 59.0 °F 94% 30.09 in 1.8 mi ESE 6.9 mph - 0.07 in Rain Heavy Rain
4:46 AM 60.8 °F 59.0 °F 94% 30.08 in 1.8 mi SE 13.8 mph - 0.15 in Rain Rain
4:54 AM 61.0 °F 59.0 °F 93% 30.06 in 1.0 mi ESE 6.9 mph - 0.25 in Rain Heavy Rain
5:13 AM 60.8 °F 59.0 °F 94% 30.09 in 2.0 mi ESE 9.2 mph - 0.13 in Rain Heavy Rain
5:20 AM 60.8 °F 59.0 °F 94% 30.09 in 1.2 mi ESE 8.1 mph - 0.22 in Rain Heavy Rain
5:32 AM 60.8 °F 59.0 °F 94% 30.08 in 2.5 mi ESE 10.4 mph 18.4 mph 0.23 in Rain Light Rain
5:35 AM 60.8 °F 59.0 °F 94% 30.09 in 3.0 mi ESE 9.2 mph - 0.24 in Rain Light Rain
5:44 AM 60.8 °F 59.0 °F 94% 30.09 in 1.8 mi ESE 10.4 mph - 0.29 in Rain Heavy Rain
5:54 AM 62.1 °F 60.1 °F 93% 30.06 in 1.8 mi ESE 11.5 mph - 0.32 in Rain Rain
5:58 AM 62.6 °F 60.8 °F 94% 30.08 in 2.0 mi ESE 13.8 mph - 0.00 in Rain Light Rain
6:03 AM 62.6 °F 59.0 °F 88% 30.08 in 3.0 mi SE 15.0 mph 19.6 mph 0.00 in Rain Light Rain
6:10 AM 62.6 °F 59.0 °F 88% 30.08 in 5.0 mi SE 18.4 mph 23.0 mph 0.01 in Rain Light Rain
6:54 AM 62.1 °F 59.0 °F 90% 30.05 in 8.0 mi SE 9.2 mph - 0.01 in Rain Light Rain
7:54 AM 61.0 °F 59.0 °F 93% 30.06 in 9.0 mi SE 11.5 mph - 0.00 in   Overcast
8:54 AM 62.1 °F 57.9 °F 86% 30.08 in 8.0 mi SE 12.7 mph - N/A   Overcast
9:54 AM 62.1 °F 57.9 °F 86% 30.07 in 7.0 mi SE 12.7 mph 19.6 mph N/A   Overcast
10:41 AM 62.6 °F 57.2 °F 82% 30.09 in 7.0 mi SSE 13.8 mph - N/A   Overcast
10:54 AM 64.0 °F 59.0 °F 84% 30.06 in 8.0 mi SE 11.5 mph 21.9 mph N/A   Overcast
11:54 AM 64.9 °F 59.0 °F 81% 30.05 in 7.0 mi SSE 12.7 mph 18.4 mph N/A   Overcast
12:54 PM 66.0 °F 59.0 °F 78% 30.05 in 6.0 mi SE 11.5 mph - N/A   Haze
1:54 PM 66.0 °F 60.1 °F 81% 30.04 in 5.0 mi SE 12.7 mph - N/A   Haze
2:02 PM 66.2 °F 60.8 °F 83% 30.06 in 5.0 mi SE 12.7 mph - N/A   Haze
2:54 PM 66.0 °F 60.1 °F 81% 30.05 in 5.0 mi SE 10.4 mph - N/A   Haze
3:54 PM 66.0 °F 60.1 °F 81% 30.04 in 5.0 mi SE 9.2 mph - N/A   Haze
4:54 PM 66.9 °F 60.1 °F 79% 30.04 in 8.0 mi ESE 6.9 mph - N/A   Overcast
5:54 PM 66.0 °F 59.0 °F 78% 30.04 in 9.0 mi East 9.2 mph - N/A   Overcast
6:54 PM 66.0 °F 59.0 °F 78% 30.05 in 10.0 mi ESE 5.8 mph - N/A   Overcast
7:54 PM 63.0 °F 59.0 °F 87% 30.08 in 2.5 mi ESE 8.1 mph - 0.00 in Rain Light Rain
8:10 PM 62.6 °F 60.8 °F 94% 30.10 in 4.0 mi East 5.8 mph - 0.00 in   Overcast
8:54 PM 63.0 °F 60.1 °F 90% 30.09 in 7.0 mi ESE 5.8 mph - 0.00 in   Overcast
9:54 PM 63.0 °F 60.1 °F 90% 30.11 in 7.0 mi Calm Calm - N/A   Overcast
10:54 PM 63.0 °F 59.0 °F 87% 30.11 in 9.0 mi ESE 3.5 mph - N/A   Overcast